^^
Your Local Weather - Clay, NY Station Historical Data
Daily Summary for April 5, 2017 Units:  English    Metric   Both
« Previous Day
Next Day »
Daily Weekly Monthly Yearly Custom
  High: Low: Average:
Temperature: 48.5 °F 40.0 °F 43.7 °F
Dew Point: 40.8 °F 34.9 °F 36.4 °F
Humidity: 83% 67% 76%
Wind Speed: 7.0mph 0.0mph 3.2mph
Wind Gust: 12.0mph - -
Wind- - SSW
Pressure: 29.96 in 29.65 in -
Precipitation: 0.00 in    
Historical Graphs
 
 
Tabular Data for April 5, 2017
Time Temperature Dew Point Pressure Wind Wind Speed Wind Gust Humidity Rainfall Rate (Hourly) solar
00:00 48.5 °F 40.6 °F 29.65 in WNW 3.0 mph 3.0 mph 74% 0.00 in 0 W/m2
00:06 48.3 °F 40.7 °F 29.66 in NW 3.0 mph 4.0 mph 75% 0.00 in 0 W/m2
00:12 48.1 °F 40.5 °F 29.66 in SW 3.0 mph 5.0 mph 75% 0.00 in 0 W/m2
00:18 47.8 °F 40.6 °F 29.66 in West 4.0 mph 5.0 mph 76% 0.00 in 0 W/m2
00:24 47.5 °F 40.6 °F 29.67 in WNW 3.0 mph 4.0 mph 77% 0.00 in 0 W/m2
00:30 47.4 °F 40.6 °F 29.67 in WNW 3.0 mph 3.0 mph 77% 0.00 in 0 W/m2
00:36 47.4 °F 40.6 °F 29.67 in SW 2.0 mph 3.0 mph 77% 0.00 in 0 W/m2
00:42 47.3 °F 40.8 °F 29.67 in West 1.0 mph 1.0 mph 78% 0.00 in 0 W/m2
00:48 47.3 °F 40.5 °F 29.67 in WSW 1.0 mph 4.0 mph 77% 0.00 in 0 W/m2
00:54 47.2 °F 40.4 °F 29.67 in WNW 2.0 mph 3.0 mph 77% 0.00 in 0 W/m2
01:00 47.3 °F 40.1 °F 29.67 in West 3.0 mph 4.0 mph 76% 0.00 in 0 W/m2
01:06 47.3 °F 39.8 °F 29.68 in WSW 3.0 mph 6.0 mph 75% 0.00 in 0 W/m2
01:12 47.3 °F 39.8 °F 29.68 in WSW 3.0 mph 8.0 mph 75% 0.00 in 0 W/m2
01:18 47.3 °F 38.7 °F 29.68 in West 5.0 mph 8.0 mph 72% 0.00 in 0 W/m2
01:24 47.1 °F 38.5 °F 29.68 in WSW 6.0 mph 6.0 mph 72% 0.00 in 0 W/m2
01:30 47.0 °F 38.4 °F 29.68 in SW 5.0 mph 8.0 mph 72% 0.00 in 0 W/m2
01:36 46.8 °F 38.2 °F 29.69 in West 4.0 mph 8.0 mph 72% 0.00 in 0 W/m2
01:42 46.6 °F 38.1 °F 29.69 in SW 5.0 mph 8.0 mph 72% 0.00 in 0 W/m2
01:48 46.2 °F 37.7 °F 29.70 in WSW 7.0 mph 12.0 mph 72% 0.00 in 0 W/m2
01:54 46.0 °F 37.8 °F 29.70 in WSW 7.0 mph 7.0 mph 73% 0.00 in 0 W/m2
02:00 45.7 °F 37.5 °F 29.71 in West 5.0 mph 9.0 mph 73% 0.00 in 0 W/m2
02:06 45.6 °F 37.4 °F 29.71 in WSW 5.0 mph 9.0 mph 73% 0.00 in 0 W/m2
02:12 45.4 °F 37.6 °F 29.71 in WNW 3.0 mph 3.0 mph 74% 0.00 in 0 W/m2
02:18 45.3 °F 37.5 °F 29.71 in SW 3.0 mph 6.0 mph 74% 0.00 in 0 W/m2
02:24 45.2 °F 37.4 °F 29.71 in West 4.0 mph 5.0 mph 74% 0.00 in 0 W/m2
02:30 45.1 °F 37.6 °F 29.72 in WSW 3.0 mph 3.0 mph 75% 0.00 in 0 W/m2
02:36 45.0 °F 37.2 °F 29.72 in West 4.0 mph 7.0 mph 74% 0.00 in 0 W/m2
02:42 44.9 °F 37.5 °F 29.72 in WSW 5.0 mph 5.0 mph 75% 0.00 in 0 W/m2
02:48 44.8 °F 37.4 °F 29.72 in WSW 3.0 mph 8.0 mph 75% 0.00 in 0 W/m2
02:54 44.8 °F 37.0 °F 29.72 in SW 4.0 mph 5.0 mph 74% 0.00 in 0 W/m2
03:00 44.7 °F 36.9 °F 29.73 in West 5.0 mph 9.0 mph 74% 0.00 in 0 W/m2
03:06 44.7 °F 36.9 °F 29.73 in WNW 5.0 mph 9.0 mph 74% 0.00 in 0 W/m2
03:12 44.7 °F 36.9 °F 29.73 in West 5.0 mph 5.0 mph 74% 0.00 in 0 W/m2
03:18 44.6 °F 36.8 °F 29.73 in West 4.0 mph 5.0 mph 74% 0.00 in 0 W/m2
03:24 44.5 °F 36.7 °F 29.73 in SW 3.0 mph 5.0 mph 74% 0.00 in 0 W/m2
03:30 44.5 °F 37.1 °F 29.73 in West 3.0 mph 3.0 mph 75% 0.00 in 0 W/m2
03:36 44.4 °F 36.6 °F 29.73 in WNW 2.0 mph 5.0 mph 74% 0.00 in 0 W/m2
03:42 44.4 °F 36.6 °F 29.73 in West 4.0 mph 7.0 mph 74% 0.00 in 0 W/m2
03:48 44.4 °F 36.6 °F 29.74 in WSW 4.0 mph 7.0 mph 74% 0.00 in 0 W/m2
03:54 44.4 °F 37.0 °F 29.74 in West 4.0 mph 6.0 mph 75% 0.00 in 0 W/m2
04:00 44.3 °F 36.5 °F 29.73 in WNW 4.0 mph 6.0 mph 74% 0.00 in 0 W/m2
04:06 44.2 °F 36.8 °F 29.74 in WSW 4.0 mph 6.0 mph 75% 0.00 in 0 W/m2
04:12 44.2 °F 36.8 °F 29.74 in West 4.0 mph 4.0 mph 75% 0.00 in 0 W/m2
04:18 44.1 °F 36.7 °F 29.74 in WNW 4.0 mph 4.0 mph 75% 0.00 in 0 W/m2
04:24 44.0 °F 36.6 °F 29.74 in West 3.0 mph 4.0 mph 75% 0.00 in 0 W/m2
04:30 44.0 °F 36.9 °F 29.75 in WNW 2.0 mph 3.0 mph 76% 0.00 in 0 W/m2
04:36 44.0 °F 36.6 °F 29.75 in West 3.0 mph 6.0 mph 75% 0.00 in 0 W/m2
04:42 43.9 °F 36.8 °F 29.75 in WNW 3.0 mph 3.0 mph 76% 0.00 in 0 W/m2
04:48 43.7 °F 36.6 °F 29.75 in West 3.0 mph 6.0 mph 76% 0.00 in 0 W/m2
04:54 43.6 °F 36.9 °F 29.76 in WNW 3.0 mph 5.0 mph 77% 0.00 in 0 W/m2
05:00 43.4 °F 37.0 °F 29.77 in West 3.0 mph 7.0 mph 78% 0.00 in 0 W/m2
05:06 43.1 °F 37.0 °F 29.77 in WNW 5.0 mph 7.0 mph 79% 0.00 in 0 W/m2
05:12 42.9 °F 36.8 °F 29.78 in WNW 4.0 mph 5.0 mph 79% 0.00 in 0 W/m2
05:18 42.7 °F 37.3 °F 29.79 in WNW 4.0 mph 5.0 mph 81% 0.00 in 0 W/m2
05:24 42.6 °F 37.2 °F 29.80 in WNW 3.0 mph 5.0 mph 81% 0.00 in 0 W/m2
05:30 42.6 °F 37.2 °F 29.80 in WNW 3.0 mph 3.0 mph 81% 0.00 in 0 W/m2
05:36 42.6 °F 37.2 °F 29.80 in WNW 4.0 mph 4.0 mph 81% 0.00 in 0 W/m2
05:42 42.7 °F 37.3 °F 29.81 in WSW 3.0 mph 4.0 mph 81% 0.00 in 0 W/m2
05:48 42.7 °F 37.0 °F 29.82 in NW 2.0 mph 4.0 mph 80% 0.00 in 0 W/m2
05:54 42.7 °F 36.6 °F 29.82 in WNW 3.0 mph 5.0 mph 79% 0.00 in 0 W/m2
06:00 42.8 °F 36.4 °F 29.82 in NW 5.0 mph 5.0 mph 78% 0.00 in 0 W/m2
06:06 42.6 °F 36.2 °F 29.83 in WNW 5.0 mph 11.0 mph 78% 0.00 in 0 W/m2
06:12 42.2 °F 36.2 °F 29.84 in WNW 4.0 mph 8.0 mph 79% 0.00 in 0 W/m2
06:18 41.7 °F 36.0 °F 29.83 in WNW 4.0 mph 8.0 mph 80% 0.00 in 0 W/m2
06:24 41.5 °F 35.8 °F 29.84 in NW 5.0 mph 9.0 mph 80% 0.00 in 0 W/m2
06:30 41.2 °F 35.5 °F 29.84 in NNW 4.0 mph 8.0 mph 80% 0.00 in 0 W/m2
06:36 41.0 °F 35.6 °F 29.85 in WNW 5.0 mph 8.0 mph 81% 0.00 in 0 W/m2
06:42 40.8 °F 35.4 °F 29.84 in WNW 6.0 mph 7.0 mph 81% 0.00 in 0 W/m2
06:48 40.7 °F 35.3 °F 29.85 in WNW 5.0 mph 7.0 mph 81% 0.00 in 0 W/m2
06:54 40.6 °F 35.5 °F 29.85 in West 5.0 mph 6.0 mph 82% 0.00 in 0 W/m2
07:00 40.6 °F 35.5 °F 29.85 in West 5.0 mph 9.0 mph 82% 0.00 in 0 W/m2
07:06 40.5 °F 35.1 °F 29.86 in WNW 5.0 mph 9.0 mph 81% 0.00 in 7 W/m2
07:12 40.5 °F 35.1 °F 29.87 in NW 5.0 mph 7.0 mph 81% 0.00 in 7 W/m2
07:18 40.4 °F 35.3 °F 29.87 in NW 5.0 mph 7.0 mph 82% 0.00 in 9 W/m2
07:24 40.3 °F 35.2 °F 29.88 in West 4.0 mph 5.0 mph 82% 0.00 in 11 W/m2
07:30 40.3 °F 35.2 °F 29.88 in WNW 4.0 mph 6.0 mph 82% 0.00 in 12 W/m2
07:36 40.2 °F 35.1 °F 29.89 in West 5.0 mph 9.0 mph 82% 0.00 in 14 W/m2
07:42 40.2 °F 35.1 °F 29.90 in WNW 5.0 mph 5.0 mph 82% 0.00 in 14 W/m2
07:48 40.2 °F 35.1 °F 29.90 in WNW 4.0 mph 7.0 mph 82% 0.00 in 19 W/m2
07:54 40.2 °F 35.1 °F 29.90 in NW 4.0 mph 7.0 mph 82% 0.00 in 19 W/m2
08:00 40.2 °F 35.1 °F 29.90 in WNW 4.0 mph 6.0 mph 82% 0.00 in 19 W/m2
08:06 40.2 °F 35.1 °F 29.91 in WNW 4.0 mph 6.0 mph 82% 0.00 in 25 W/m2
08:12 40.1 °F 35.0 °F 29.91 in WNW 5.0 mph 5.0 mph 82% 0.00 in 30 W/m2
08:18 40.0 °F 35.3 °F 29.92 in West 5.0 mph 6.0 mph 83% 0.00 in 30 W/m2
08:24 40.0 °F 35.3 °F 29.92 in NW 5.0 mph 8.0 mph 83% 0.00 in 32 W/m2
08:30 40.0 °F 35.3 °F 29.92 in WNW 5.0 mph 5.0 mph 83% 0.00 in 35 W/m2
08:36 40.0 °F 35.3 °F 29.92 in WNW 4.0 mph 7.0 mph 83% 0.00 in 35 W/m2
08:42 40.1 °F 35.4 °F 29.92 in WNW 4.0 mph 4.0 mph 83% 0.00 in 40 W/m2
08:48 40.1 °F 35.4 °F 29.92 in WNW 3.0 mph 5.0 mph 83% 0.00 in 47 W/m2
08:54 40.1 °F 35.0 °F 29.92 in WNW 4.0 mph 7.0 mph 82% 0.00 in 54 W/m2
09:00 40.1 °F 35.0 °F 29.93 in WNW 4.0 mph 5.0 mph 82% 0.00 in 58 W/m2
09:06 40.2 °F 35.1 °F 29.92 in WNW 4.0 mph 5.0 mph 82% 0.00 in 62 W/m2
09:12 40.3 °F 35.2 °F 29.92 in West 3.0 mph 4.0 mph 82% 0.00 in 70 W/m2
09:18 40.4 °F 35.3 °F 29.92 in West 4.0 mph 6.0 mph 82% 0.00 in 69 W/m2
09:24 40.4 °F 35.0 °F 29.93 in WNW 3.0 mph 5.0 mph 81% 0.00 in 69 W/m2
09:30 40.4 °F 35.0 °F 29.92 in West 4.0 mph 5.0 mph 81% 0.00 in 81 W/m2
09:36 40.5 °F 35.1 °F 29.92 in WNW 4.0 mph 5.0 mph 81% 0.00 in 84 W/m2
09:42 40.6 °F 35.2 °F 29.93 in WNW 3.0 mph 3.0 mph 81% 0.00 in 93 W/m2
09:48 40.7 °F 35.0 °F 29.93 in WNW 3.0 mph 6.0 mph 80% 0.00 in 104 W/m2
09:54 40.7 °F 35.0 °F 29.93 in West 4.0 mph 4.0 mph 80% 0.00 in 111 W/m2
10:00 40.9 °F 35.2 °F 29.93 in WSW 3.0 mph 3.0 mph 80% 0.00 in 123 W/m2
10:06 40.9 °F 34.9 °F 29.93 in West 4.0 mph 8.0 mph 79% 0.00 in 139 W/m2
10:12 41.1 °F 35.1 °F 29.93 in WSW 3.0 mph 5.0 mph 79% 0.00 in 155 W/m2
10:18 41.2 °F 34.9 °F 29.93 in NW 4.0 mph 7.0 mph 78% 0.00 in 146 W/m2
10:24 41.3 °F 35.0 °F 29.93 in West 4.0 mph 4.0 mph 78% 0.00 in 144 W/m2
10:30 41.5 °F 35.2 °F 29.93 in NW 3.0 mph 5.0 mph 78% 0.00 in 146 W/m2
10:36 41.6 °F 35.2 °F 29.94 in West 4.0 mph 5.0 mph 78% 0.00 in 160 W/m2
10:42 41.8 °F 35.4 °F 29.94 in West 4.0 mph 4.0 mph 78% 0.00 in 151 W/m2
10:48 41.9 °F 35.5 °F 29.95 in WSW 3.0 mph 4.0 mph 78% 0.00 in 151 W/m2
10:54 42.0 °F 35.3 °F 29.95 in NW 3.0 mph 8.0 mph 77% 0.00 in 216 W/m2
11:00 42.1 °F 35.4 °F 29.95 in WNW 4.0 mph 7.0 mph 77% 0.00 in 190 W/m2
11:06 42.1 °F 35.4 °F 29.95 in WNW 4.0 mph 7.0 mph 77% 0.00 in 192 W/m2
11:12 42.4 °F 35.4 °F 29.95 in WSW 3.0 mph 5.0 mph 76% 0.00 in 214 W/m2
11:18 42.5 °F 35.5 °F 29.95 in WNW 4.0 mph 5.0 mph 76% 0.00 in 193 W/m2
11:24 42.7 °F 36.0 °F 29.95 in WNW 3.0 mph 4.0 mph 77% 0.00 in 243 W/m2
11:30 43.1 °F 36.4 °F 29.95 in West 2.0 mph 2.0 mph 77% 0.00 in 258 W/m2
11:36 43.1 °F 36.0 °F 29.95 in WNW 2.0 mph 3.0 mph 76% 0.00 in 204 W/m2
11:42 43.3 °F 36.2 °F 29.95 in WNW 2.0 mph 3.0 mph 76% 0.00 in 225 W/m2
11:48 43.4 °F 35.7 °F 29.95 in WNW 2.0 mph 4.0 mph 74% 0.00 in 190 W/m2
11:54 43.3 °F 35.6 °F 29.96 in WNW 2.0 mph 4.0 mph 74% 0.00 in 207 W/m2
12:00 43.5 °F 35.8 °F 29.96 in West 2.0 mph 2.0 mph 74% 0.00 in 202 W/m2
12:06 43.5 °F 35.4 °F 29.96 in WNW 2.0 mph 2.0 mph 73% 0.00 in 211 W/m2
12:12 43.6 °F 35.9 °F 29.96 in WSW 2.0 mph 3.0 mph 74% 0.00 in 195 W/m2
12:18 43.6 °F 35.2 °F 29.96 in West 2.0 mph 5.0 mph 72% 0.00 in 188 W/m2
12:24 43.5 °F 35.4 °F 29.96 in SW 3.0 mph 6.0 mph 73% 0.00 in 206 W/m2
12:30 43.6 °F 35.5 °F 29.95 in SW 2.0 mph 6.0 mph 73% 0.00 in 271 W/m2
12:36 43.9 °F 35.8 °F 29.95 in West 2.0 mph 7.0 mph 73% 0.00 in 253 W/m2
12:42 44.0 °F 35.9 °F 29.96 in West 3.0 mph 5.0 mph 73% 0.00 in 253 W/m2
12:48 44.1 °F 36.0 °F 29.95 in West 3.0 mph 5.0 mph 73% 0.00 in 250 W/m2
12:54 44.1 °F 35.6 °F 29.95 in WSW 3.0 mph 3.0 mph 72% 0.00 in 278 W/m2
13:00 44.2 °F 35.4 °F 29.95 in WSW 3.0 mph 3.0 mph 71% 0.00 in 260 W/m2
13:06 44.4 °F 35.9 °F 29.95 in WSW 3.0 mph 5.0 mph 72% 0.00 in 292 W/m2
13:12 44.7 °F 36.2 °F 29.95 in SW 2.0 mph 3.0 mph 72% 0.00 in 237 W/m2
13:18 44.5 °F 36.0 °F 29.96 in West 3.0 mph 3.0 mph 72% 0.00 in 250 W/m2
13:24 44.5 °F 35.7 °F 29.96 in WSW 2.0 mph 3.0 mph 71% 0.00 in 251 W/m2
13:30 44.6 °F 35.8 °F 29.96 in SW 2.0 mph 2.0 mph 71% 0.00 in 258 W/m2
13:36 44.7 °F 36.2 °F 29.96 in SW 3.0 mph 4.0 mph 72% 0.00 in 253 W/m2
13:42 44.8 °F 36.0 °F 29.96 in SW 1.0 mph 2.0 mph 71% 0.00 in 264 W/m2
13:48 45.1 °F 36.3 °F 29.95 in WNW 1.0 mph 5.0 mph 71% 0.00 in 272 W/m2
13:54 45.2 °F 36.4 °F 29.95 in SW 2.0 mph 5.0 mph 71% 0.00 in 309 W/m2
14:00 45.5 °F 36.3 °F 29.95 in WSW 1.0 mph 1.0 mph 70% 0.00 in 320 W/m2
14:06 45.7 °F 36.8 °F 29.94 in Calm   2.0 mph 71% 0.00 in 308 W/m2
14:12 45.8 °F 36.2 °F 29.94 in West 1.0 mph 1.0 mph 69% 0.00 in 278 W/m2
14:18 45.6 °F 36.0 °F 29.93 in WSW 1.0 mph 3.0 mph 69% 0.00 in 299 W/m2
14:24 45.3 °F 36.1 °F 29.93 in WSW 1.0 mph 1.0 mph 70% 0.00 in 294 W/m2
14:30 45.5 °F 36.3 °F 29.93 in SW 1.0 mph 2.0 mph 70% 0.00 in 276 W/m2
14:36 45.7 °F 36.8 °F 29.93 in WSW 1.0 mph 2.0 mph 71% 0.00 in 264 W/m2
14:42 46.0 °F 36.0 °F 29.93 in NNW 1.0 mph 3.0 mph 68% 0.00 in 246 W/m2
14:48 46.1 °F 36.1 °F 29.92 in North 3.0 mph 3.0 mph 68% 0.00 in 260 W/m2
14:54 46.1 °F 36.1 °F 29.92 in North 2.0 mph 3.0 mph 68% 0.00 in 274 W/m2
15:00 45.9 °F 35.9 °F 29.92 in North 2.0 mph 3.0 mph 68% 0.00 in 295 W/m2
15:06 45.8 °F 35.5 °F 29.91 in NNE 2.0 mph 3.0 mph 67% 0.00 in 287 W/m2
15:12 45.9 °F 36.3 °F 29.91 in ENE 1.0 mph 2.0 mph 69% 0.00 in 279 W/m2
15:19 46.4 °F 36.4 °F 29.92 in ENE 1.0 mph 3.0 mph 68% 0.00 in 258 W/m2
15:24 46.6 °F 37.0 °F 29.92 in ENE 2.0 mph 2.0 mph 69% 0.00 in 250 W/m2
15:30 46.7 °F 36.3 °F 29.92 in ESE 1.0 mph 1.0 mph 67% 0.00 in 218 W/m2
15:36 46.7 °F 36.7 °F 29.92 in ESE 1.0 mph 2.0 mph 68% 0.00 in 229 W/m2
15:42 46.7 °F 36.7 °F 29.92 in South 1.0 mph 2.0 mph 68% 0.00 in 230 W/m2
15:48 46.8 °F 36.4 °F 29.92 in South 1.0 mph 2.0 mph 67% 0.00 in 207 W/m2
15:54 47.0 °F 36.6 °F 29.92 in Calm     67% 0.00 in 190 W/m2
16:00 47.2 °F 36.8 °F 29.92 in Calm   1.0 mph 67% 0.00 in 155 W/m2
16:06 47.0 °F 36.6 °F 29.93 in South 1.0 mph 2.0 mph 67% 0.00 in 148 W/m2
16:12 46.7 °F 36.3 °F 29.92 in SE 1.0 mph 2.0 mph 67% 0.00 in 158 W/m2
16:18 46.7 °F 36.7 °F 29.93 in SE 1.0 mph 2.0 mph 68% 0.00 in 158 W/m2
16:24 46.9 °F 36.9 °F 29.93 in SE 1.0 mph 2.0 mph 68% 0.00 in 149 W/m2
16:30 46.8 °F 36.4 °F 29.92 in SE 1.0 mph 1.0 mph 67% 0.00 in 158 W/m2
16:36 46.9 °F 36.9 °F 29.92 in East 2.0 mph 2.0 mph 68% 0.00 in 171 W/m2
16:42 46.7 °F 37.1 °F 29.92 in SE 2.0 mph 5.0 mph 69% 0.00 in 127 W/m2
16:48 46.5 °F 36.9 °F 29.91 in East 3.0 mph 5.0 mph 69% 0.00 in 102 W/m2
16:54 46.4 °F 36.4 °F 29.92 in East 2.0 mph 3.0 mph 68% 0.00 in 128 W/m2
17:00 46.3 °F 36.3 °F 29.92 in ESE 2.0 mph 3.0 mph 68% 0.00 in 142 W/m2
17:06 46.3 °F 36.3 °F 29.92 in East 2.0 mph 3.0 mph 68% 0.00 in 151 W/m2
17:12 46.4 °F 36.4 °F 29.92 in ENE 1.0 mph 2.0 mph 68% 0.00 in 123 W/m2
17:18 46.4 °F 36.8 °F 29.92 in ENE 2.0 mph 5.0 mph 69% 0.00 in 81 W/m2
17:24 46.3 °F 36.7 °F 29.92 in NE 2.0 mph 2.0 mph 69% 0.00 in 72 W/m2
17:30 46.1 °F 36.5 °F 29.92 in East 3.0 mph 6.0 mph 69% 0.00 in 134 W/m2
17:36 46.0 °F 36.4 °F 29.93 in ENE 3.0 mph 6.0 mph 69% 0.00 in 111 W/m2
17:42 46.0 °F 36.8 °F 29.92 in ENE 2.0 mph 4.0 mph 70% 0.00 in 98 W/m2
17:48 46.1 °F 36.5 °F 29.93 in East 2.0 mph 4.0 mph 69% 0.00 in 90 W/m2
17:54 45.9 °F 36.3 °F 29.93 in SSE 3.0 mph 8.0 mph 69% 0.00 in 76 W/m2
18:00 45.7 °F 36.1 °F 29.93 in East 3.0 mph 6.0 mph 69% 0.00 in 72 W/m2
18:06 45.6 °F 36.4 °F 29.92 in ENE 4.0 mph 6.0 mph 70% 0.00 in 58 W/m2
18:12 45.4 °F 36.2 °F 29.92 in NE 5.0 mph 6.0 mph 70% 0.00 in 58 W/m2
18:18 45.3 °F 36.4 °F 29.92 in ENE 5.0 mph 8.0 mph 71% 0.00 in 69 W/m2
18:24 45.3 °F 36.4 °F 29.92 in East 4.0 mph 5.0 mph 71% 0.00 in 49 W/m2
18:30 45.3 °F 36.1 °F 29.92 in NNE 3.0 mph 3.0 mph 70% 0.00 in 53 W/m2
18:36 45.2 °F 36.4 °F 29.92 in NE 4.0 mph 5.0 mph 71% 0.00 in 56 W/m2
18:42 45.2 °F 36.4 °F 29.92 in NE 4.0 mph 6.0 mph 71% 0.00 in 44 W/m2
18:48 45.1 °F 36.3 °F 29.92 in ENE 3.0 mph 6.0 mph 71% 0.00 in 23 W/m2
18:54 45.0 °F 36.2 °F 29.92 in ENE 3.0 mph 4.0 mph 71% 0.00 in 16 W/m2
19:00 44.9 °F 36.1 °F 29.91 in ENE 3.0 mph 3.0 mph 71% 0.00 in 14 W/m2
19:06 44.7 °F 36.2 °F 29.90 in East 4.0 mph 5.0 mph 72% 0.00 in 21 W/m2
19:12 44.4 °F 36.3 °F 29.90 in ENE 3.0 mph 3.0 mph 73% 0.00 in 19 W/m2
19:18 44.1 °F 36.0 °F 29.90 in NNE 3.0 mph 6.0 mph 73% 0.00 in 16 W/m2
19:24 43.9 °F 35.8 °F 29.90 in East 4.0 mph 6.0 mph 73% 0.00 in 11 W/m2
19:30 43.7 °F 36.0 °F 29.89 in NE 4.0 mph 4.0 mph 74% 0.00 in 5 W/m2
19:36 43.6 °F 36.2 °F 29.89 in ENE 4.0 mph 5.0 mph 75% 0.00 in 0 W/m2
19:42 43.4 °F 36.0 °F 29.88 in East 4.0 mph 5.0 mph 75% 0.00 in 0 W/m2
19:48 43.3 °F 36.2 °F 29.88 in ENE 4.0 mph 5.0 mph 76% 0.00 in 0 W/m2
19:54 43.2 °F 36.1 °F 29.89 in East 3.0 mph 4.0 mph 76% 0.00 in 0 W/m2
20:00 43.1 °F 36.0 °F 29.89 in ENE 4.0 mph 4.0 mph 76% 0.00 in 0 W/m2
20:06 43.1 °F 36.4 °F 29.89 in East 5.0 mph 6.0 mph 77% 0.00 in 0 W/m2
20:12 43.1 °F 36.4 °F 29.88 in ENE 4.0 mph 7.0 mph 77% 0.00 in 0 W/m2
20:18 42.9 °F 36.2 °F 29.87 in ENE 4.0 mph 8.0 mph 77% 0.00 in 0 W/m2
20:24 42.8 °F 36.1 °F 29.87 in ESE 4.0 mph 5.0 mph 77% 0.00 in 0 W/m2
20:30 42.7 °F 36.0 °F 29.87 in East 4.0 mph 4.0 mph 77% 0.00 in 0 W/m2
20:36 42.6 °F 35.9 °F 29.87 in NE 4.0 mph 7.0 mph 77% 0.00 in 0 W/m2
20:42 42.5 °F 35.8 °F 29.87 in ESE 4.0 mph 4.0 mph 77% 0.00 in 0 W/m2
20:48 42.4 °F 36.0 °F 29.87 in NNE 3.0 mph 7.0 mph 78% 0.00 in 0 W/m2
20:54 42.4 °F 35.7 °F 29.87 in ENE 4.0 mph 4.0 mph 77% 0.00 in 0 W/m2
21:00 42.3 °F 35.9 °F 29.87 in ENE 3.0 mph 8.0 mph 78% 0.00 in 0 W/m2
21:06 42.2 °F 35.8 °F 29.87 in East 3.0 mph 8.0 mph 78% 0.00 in 0 W/m2
21:12 42.1 °F 35.7 °F 29.87 in East 3.0 mph 5.0 mph 78% 0.00 in 0 W/m2
21:18 42.0 °F 36.0 °F 29.87 in NE 3.0 mph 5.0 mph 79% 0.00 in 0 W/m2
21:24 41.9 °F 35.9 °F 29.87 in ENE 3.0 mph 3.0 mph 79% 0.00 in 0 W/m2
21:30 41.8 °F 36.1 °F 29.88 in East 3.0 mph 3.0 mph 80% 0.00 in 0 W/m2
21:36 41.7 °F 36.0 °F 29.87 in NNE 2.0 mph 3.0 mph 80% 0.00 in 0 W/m2
21:42 41.7 °F 36.0 °F 29.87 in East 2.0 mph 5.0 mph 80% 0.00 in 0 W/m2
21:48 41.7 °F 36.3 °F 29.87 in ENE 2.0 mph 5.0 mph 81% 0.00 in 0 W/m2
21:54 41.6 °F 36.2 °F 29.87 in NE 2.0 mph 2.0 mph 81% 0.00 in 0 W/m2
22:00 41.5 °F 36.1 °F 29.87 in ENE 1.0 mph 1.0 mph 81% 0.00 in 0 W/m2
22:06 41.4 °F 36.0 °F 29.87 in East 2.0 mph 3.0 mph 81% 0.00 in 0 W/m2
22:12 41.8 °F 36.4 °F 29.86 in ENE 4.0 mph 9.0 mph 81% 0.00 in 0 W/m2
22:18 41.8 °F 36.4 °F 29.86 in East 4.0 mph 9.0 mph 81% 0.00 in 0 W/m2
22:24 41.8 °F 36.4 °F 29.86 in ENE 3.0 mph 4.0 mph 81% 0.00 in 0 W/m2
22:30 41.8 °F 36.4 °F 29.86 in East 3.0 mph 3.0 mph 81% 0.00 in 0 W/m2
22:36 41.8 °F 36.4 °F 29.86 in East 3.0 mph 4.0 mph 81% 0.00 in 0 W/m2
22:42 41.9 °F 36.5 °F 29.85 in East 3.0 mph 4.0 mph 81% 0.00 in 0 W/m2
22:48 42.0 °F 36.6 °F 29.85 in East 4.0 mph 7.0 mph 81% 0.00 in 0 W/m2
22:54 42.0 °F 36.6 °F 29.85 in East 5.0 mph 11.0 mph 81% 0.00 in 0 W/m2
23:00 41.8 °F 36.4 °F 29.85 in ESE 5.0 mph 5.0 mph 81% 0.00 in 0 W/m2
23:06 41.8 °F 36.7 °F 29.84 in ESE 4.0 mph 5.0 mph 82% 0.00 in 0 W/m2
23:12 41.8 °F 36.7 °F 29.84 in East 4.0 mph 6.0 mph 82% 0.00 in 0 W/m2
23:18 41.8 °F 36.7 °F 29.84 in ESE 5.0 mph 7.0 mph 82% 0.00 in 0 W/m2
23:24 41.8 °F 36.7 °F 29.83 in ESE 6.0 mph 6.0 mph 82% 0.00 in 0 W/m2
23:30 41.7 °F 36.6 °F 29.84 in East 6.0 mph 6.0 mph 82% 0.00 in 0 W/m2
23:36 41.6 °F 36.5 °F 29.83 in ENE 4.0 mph 7.0 mph 82% 0.00 in 0 W/m2
23:42 41.5 °F 36.7 °F 29.83 in East 4.0 mph 4.0 mph 83% 0.00 in 0 W/m2
23:48 41.3 °F 36.5 °F 29.83 in ENE 4.0 mph 4.0 mph 83% 0.00 in 0 W/m2
23:56 41.1 °F 36.3 °F 29.83 in SE 4.0 mph 8.0 mph 83% 0.00 in 0 W/m2
Country Meadow, Clay, NY, USA
Compliments of Weather Underground - 2 mb